Hlavní strana
METAR-TAF:

METAR-TAF

Letiště :

Dyersburg, Tennessee, Spojené státy americké

zeměpisná šířka: 36-00N, zeměpisná délka: 089-24W, výška: 103 m

Aktuální stav počasí

Zpráva byla vytvořena před 10 minutami, v 01:56 UTC
Jihovýchodní vítr 3 kt
Teplota 7°C
Vlhkost vzduchu 61%
Tlak 1022 hPa
Viditelnost: 16.1 km
Jasno

METAR: KDYR 220156Z AUTO 13003KT 10SM CLR 07/00 A3018 RMK AO2 SLP228 T00670000 PNO $

Čas: 21:06 (02:06 UTC)


TAF: chybějící

Stav a předpovědi počasí z více než 4 000 letišť (zprávy METAR a TAF).

Červené a žluté tečky na mapě představují dostupné meteorologické stanice.

Když kurzor umístíte na tečku, zobrazí se název stanice.

Pak kliknutím zobrazíte stav a předpověď počasí.

Chcete-li změnit mapu, kliknutím na zelené tlačítko se znaménkem +mapu přiblížíte, kliknutím na zelené tlačítko se znaménkem – mapu oddálíte a kliknutím na zelené šipky přejdete na sousední mapy.


METAR-TAF: